"datetime","# probes","# resolvers","can_ipv6","can_ipv6_prbs","can_tcp","can_tcp_prbs","can_tcp6","can_tcp6_prbs","does_ecs","does_ecs_prbs","does_flagday","does_flagday_prbs","does_rov4","does_rov4_prbs","does_rov6","does_rov6_prbs","does_qnamemin","doesnt_qnamemin","does_qnamemin_prbs","doesnt_qnamemin_prbs","does_nxdomain","doesnt_nxdomain","does_nxdomain_prbs","doesnt_nxdomain_prbs","has_ta_19036","hasnt_ta_19036","has_ta_19036_prbs","hasnt_ta_19036_prbs","has_ta_20326","hasnt_ta_20326","has_ta_20326_prbs","hasnt_ta_20326_prbs","can_rsamd5","cannot_rsamd5","broken_rsamd5","can_rsamd5_prbs","cannot_rsamd5_prbs","broken_rsamd5_prbs","can_dsa","cannot_dsa","broken_dsa","can_dsa_prbs","cannot_dsa_prbs","broken_dsa_prbs","can_rsasha1","cannot_rsasha1","broken_rsasha1","can_rsasha1_prbs","cannot_rsasha1_prbs","broken_rsasha1_prbs","can_dsansec3","cannot_dsansec3","broken_dsansec3","can_dsansec3_prbs","cannot_dsansec3_prbs","broken_dsansec3_prbs","can_rsansec3","cannot_rsansec3","broken_rsansec3","can_rsansec3_prbs","cannot_rsansec3_prbs","broken_rsansec3_prbs","can_rsasha256","cannot_rsasha256","broken_rsasha256","can_rsasha256_prbs","cannot_rsasha256_prbs","broken_rsasha256_prbs","can_rsasha512","cannot_rsasha512","broken_rsasha512","can_rsasha512_prbs","cannot_rsasha512_prbs","broken_rsasha512_prbs","can_eccgost","cannot_eccgost","broken_eccgost","can_eccgost_prbs","cannot_eccgost_prbs","broken_eccgost_prbs","can_ecdsa256","cannot_ecdsa256","broken_ecdsa256","can_ecdsa256_prbs","cannot_ecdsa256_prbs","broken_ecdsa256_prbs","can_ecdsa384","cannot_ecdsa384","broken_ecdsa384","can_ecdsa384_prbs","cannot_ecdsa384_prbs","broken_ecdsa384_prbs","can_ed25519","cannot_ed25519","broken_ed25519","can_ed25519_prbs","cannot_ed25519_prbs","broken_ed25519_prbs","can_ed448","cannot_ed448","broken_ed448","can_ed448_prbs","cannot_ed448_prbs","broken_ed448_prbs","can_gost","cannot_gost","broken_gost","can_gost_prbs","cannot_gost_prbs","broken_gost_prbs","can_sha384","cannot_sha384","broken_sha384","can_sha384_prbs","cannot_sha384_prbs","broken_sha384_prbs","is_internal","is_forwarding","is_external","is_internal_prbs","is_forwarding_prbs","is_external_prbs"
2018-07-19T23:59:31Z,9,14,7,6,14,9,5,5,1,2,0,0,0,0,0,0,10,4,6,5,0,14,0,9,12,0,8,0,14,0,9,0,0,14,0,1,9,1,14,0,0,9,1,0,14,0,0,9,0,0,14,0,0,9,1,0,14,0,0,9,0,0,14,0,0,9,0,0,14,0,0,9,0,0,14,0,0,9,2,0,14,0,0,9,1,0,14,0,0,9,1,0,0,14,0,0,9,0,0,14,0,0,9,0,14,0,0,9,1,0,14,0,0,9,1,0,8,6,0,5,5,1
2018-07-20T23:59:28Z,9,14,7,6,14,9,5,5,1,2,0,0,0,0,0,0,10,4,6,5,0,14,0,9,12,0,8,0,14,0,9,0,0,14,0,1,9,1,14,0,0,9,1,0,14,0,0,9,0,0,14,0,0,9,1,0,14,0,0,9,0,0,14,0,0,9,0,0,14,0,0,9,0,0,14,0,0,9,2,0,14,0,0,9,1,0,14,0,0,9,1,0,0,14,0,0,9,0,0,14,0,0,9,0,14,0,0,9,1,0,14,0,0,9,1,0,8,6,0,5,5,1
2018-07-21T23:59:21Z,8,13,6,5,13,8,4,4,1,2,0,0,0,0,0,0,10,3,6,4,0,13,0,8,13,0,8,0,13,0,8,0,0,13,0,1,8,1,13,0,0,8,1,0,13,0,0,8,0,0,13,0,0,8,1,0,13,0,0,8,0,0,13,0,0,8,0,0,13,0,0,8,0,0,13,0,0,8,2,0,13,0,0,8,1,0,13,0,0,8,1,0,0,13,0,0,8,0,0,13,0,0,8,0,13,0,0,8,1,0,13,0,0,8,1,0,7,6,0,4,5,2
2018-07-22T23:59:21Z,8,13,6,5,13,8,4,4,1,2,0,0,0,0,0,0,10,3,6,4,0,13,0,8,13,0,8,0,13,0,8,0,0,13,0,1,8,1,13,0,0,8,1,0,13,0,0,8,0,0,13,0,0,8,1,0,13,0,0,8,0,0,13,0,0,8,0,0,13,0,0,8,0,0,13,0,0,8,2,0,13,0,0,8,1,0,13,0,0,8,1,0,0,13,0,0,8,0,0,13,0,0,8,0,13,0,0,8,1,0,13,0,0,8,1,0,7,5,1,4,4,2
2018-07-23T23:59:21Z,9,15,8,6,15,9,6,5,3,3,0,0,0,0,0,0,10,5,6,5,0,13,0,9,15,0,9,0,15,0,9,0,0,15,0,1,9,1,15,0,0,9,1,0,15,0,0,9,0,0,15,0,0,9,1,0,15,0,0,9,0,0,15,0,0,9,0,0,15,0,0,9,0,0,15,0,0,9,2,0,15,0,0,9,1,0,15,0,0,9,1,0,0,15,0,0,9,0,0,15,0,0,9,0,15,0,0,9,1,0,15,0,0,9,1,0,7,8,0,5,6,2
2018-07-24T23:59:21Z,8,13,6,5,13,8,4,4,1,2,0,0,0,0,0,0,10,3,6,4,0,13,0,8,13,0,8,0,13,0,8,0,0,13,0,1,8,1,13,0,0,8,1,0,13,0,0,8,0,0,13,0,0,8,1,0,13,0,0,8,0,0,13,0,0,8,0,0,13,0,0,8,0,0,13,0,0,8,2,0,13,0,0,8,1,0,13,0,0,8,1,0,0,13,0,0,8,0,0,13,0,0,8,0,13,0,0,8,1,0,13,0,0,8,1,0,7,5,1,4,4,2
2018-07-25T23:59:21Z,8,13,6,5,13,8,4,4,1,2,0,0,0,0,0,0,10,3,6,4,0,13,0,8,13,0,8,0,13,0,8,0,0,13,0,1,8,1,13,0,0,8,1,0,13,0,0,8,0,0,13,0,0,8,1,0,13,0,0,8,0,0,13,0,0,8,0,0,13,0,0,8,0,0,13,0,0,8,2,0,13,0,0,8,1,0,13,0,0,8,1,0,0,13,0,0,8,0,0,13,0,0,8,0,13,0,0,8,1,0,13,0,0,8,1,0,7,5,1,4,4,2
2018-07-26T23:59:21Z,9,15,8,6,15,9,6,5,3,3,0,0,0,0,0,0,10,5,6,5,0,15,0,9,13,2,8,1,15,0,9,0,0,15,0,1,9,1,15,0,0,9,1,0,15,0,0,9,0,0,15,0,0,9,1,0,15,0,0,9,0,0,15,0,0,9,0,0,15,0,0,9,0,0,15,0,0,9,2,0,15,0,0,9,1,0,15,0,0,9,1,0,0,15,0,0,9,0,0,15,0,0,9,0,15,0,0,9,1,0,15,0,0,9,1,0,7,7,1,5,5,2
2018-07-27T23:59:22Z,8,13,6,5,13,8,4,4,1,2,0,0,0,0,0,0,10,3,6,4,0,13,0,8,13,0,8,0,13,0,8,0,0,13,0,1,8,1,13,0,0,8,1,0,13,0,0,8,0,0,13,0,0,8,1,0,13,0,0,8,0,0,13,0,0,8,0,0,13,0,0,8,0,0,13,0,0,8,2,0,13,0,0,8,1,0,13,0,0,8,1,0,0,13,0,0,8,0,0,13,0,0,8,0,13,0,0,8,1,0,13,0,0,8,1,0,7,5,1,4,4,2
2018-07-28T23:59:20Z,9,14,6,5,14,9,4,4,1,2,0,0,0,0,0,0,10,4,6,5,0,14,0,9,13,0,8,0,14,0,9,0,0,14,0,1,9,2,13,1,0,8,1,1,13,0,1,8,0,1,13,1,0,8,2,1,13,1,0,8,1,1,13,1,0,8,1,1,13,1,0,8,1,1,14,0,0,9,2,1,13,0,1,8,1,1,13,1,0,8,2,1,0,13,1,0,8,1,1,13,0,1,8,1,13,1,0,8,2,1,13,1,0,8,2,1,7,5,2,4,5,3
2018-07-29T23:59:20Z,8,13,6,5,13,8,4,4,1,2,0,0,0,0,0,0,10,3,6,4,0,13,0,8,13,0,8,0,13,0,8,0,0,13,0,1,8,1,13,0,0,8,1,0,13,0,0,8,0,0,13,0,0,8,1,0,13,0,0,8,0,0,13,0,0,8,0,0,13,0,0,8,0,0,13,0,0,8,2,0,13,0,0,8,1,0,13,0,0,8,1,0,0,13,0,0,8,0,0,13,0,0,8,0,13,0,0,8,1,0,13,0,0,8,1,0,7,6,0,4,5,2
2018-07-30T23:59:21Z,8,13,6,5,13,8,4,4,1,2,0,0,0,0,0,0,10,3,6,4,0,13,0,8,13,0,8,0,13,0,8,0,0,13,0,1,8,1,13,0,0,8,1,0,13,0,0,8,0,0,13,0,0,8,1,0,13,0,0,8,0,0,13,0,0,8,0,0,13,0,0,8,0,0,13,0,0,8,2,0,13,0,0,8,1,0,13,0,0,8,1,0,0,13,0,0,8,0,0,13,0,0,8,0,13,0,0,8,1,0,13,0,0,8,1,0,7,5,1,4,4,2
2018-07-31T23:59:21Z,8,13,6,5,13,8,4,4,1,2,0,0,0,0,0,0,10,3,6,4,0,13,0,8,13,0,8,0,13,0,8,0,0,13,0,1,8,1,13,0,0,8,1,0,13,0,0,8,0,0,13,0,0,8,1,0,13,0,0,8,0,0,13,0,0,8,0,0,13,0,0,8,0,0,13,0,0,8,2,0,13,0,0,8,1,0,13,0,0,8,1,0,0,13,0,0,8,0,0,13,0,0,8,0,13,0,0,8,1,0,13,0,0,8,1,0,7,5,1,4,4,2
2018-08-01T23:59:22Z,8,13,7,6,13,8,5,5,1,2,0,0,0,0,0,0,10,3,6,4,0,13,0,8,13,0,8,0,13,0,8,0,0,13,0,1,8,1,13,0,0,8,1,0,13,0,0,8,0,0,13,0,0,8,1,0,13,0,0,8,0,0,13,0,0,8,0,0,13,0,0,8,0,0,13,0,0,8,2,0,13,0,0,8,1,0,13,0,0,8,1,0,0,13,0,0,8,0,0,13,0,0,8,0,13,0,0,8,1,0,13,0,0,8,1,0,7,5,1,4,4,2
2018-08-02T23:59:21Z,8,13,7,6,13,8,5,5,1,2,0,0,0,0,0,0,10,3,6,4,0,13,0,8,13,0,8,0,13,0,8,0,0,13,0,1,8,1,13,0,0,8,1,0,13,0,0,8,0,0,13,0,0,8,1,0,13,0,0,8,0,0,13,0,0,8,0,0,13,0,0,8,0,0,13,0,0,8,2,0,13,0,0,8,1,0,13,0,0,8,1,0,0,13,0,0,8,0,0,13,0,0,8,0,13,0,0,8,1,0,13,0,0,8,1,0,7,6,0,4,5,2
2018-08-03T23:59:22Z,8,13,7,6,13,8,5,5,1,2,0,0,0,0,0,0,10,3,6,4,0,13,0,8,13,0,8,0,13,0,8,0,0,13,0,1,8,1,13,0,0,8,1,0,13,0,0,8,0,0,13,0,0,8,1,0,13,0,0,8,0,0,13,0,0,8,0,0,13,0,0,8,0,0,13,0,0,8,2,0,13,0,0,8,1,0,13,0,0,8,1,0,0,13,0,0,8,0,0,13,0,0,8,0,13,0,0,8,1,0,13,0,0,8,1,0,7,6,0,4,5,2
2018-08-04T23:59:23Z,8,13,7,6,13,8,4,5,1,2,0,0,0,0,0,0,10,3,6,4,0,13,0,8,13,0,8,0,13,0,8,0,0,13,0,1,8,1,13,0,0,8,1,0,13,0,0,8,0,0,13,0,0,8,1,0,13,0,0,8,0,0,13,0,0,8,0,0,13,0,0,8,0,0,13,0,0,8,2,0,13,0,0,8,1,0,13,0,0,8,1,0,0,13,0,0,8,0,0,13,0,0,8,0,13,0,0,8,1,0,13,0,0,8,1,0,7,5,1,4,4,2
2018-08-05T23:59:22Z,9,14,8,7,13,8,5,5,1,2,0,0,0,0,0,0,10,4,6,5,0,13,0,8,13,0,8,0,14,0,9,0,0,13,1,1,8,2,13,1,0,8,2,0,14,0,0,9,0,0,13,0,1,8,1,1,13,0,1,8,0,1,14,0,0,9,0,0,13,0,1,8,0,1,14,0,0,9,2,0,13,0,1,8,1,1,13,0,1,8,1,1,0,13,1,0,8,1,0,14,0,0,9,0,14,0,0,9,1,0,14,0,0,9,1,0,7,6,1,4,5,2
2018-08-06T23:59:21Z,10,15,9,8,15,10,5,6,1,3,0,0,0,0,0,0,10,5,7,6,0,14,0,10,15,0,10,1,15,0,10,0,1,14,0,2,10,3,14,1,0,9,3,1,15,0,0,10,1,2,13,1,1,8,3,1,15,0,0,10,1,1,13,0,2,9,1,2,15,0,0,10,1,1,15,0,0,10,4,1,13,0,2,9,2,2,15,0,0,10,2,0,2,13,0,2,10,0,0,14,1,0,10,1,13,1,1,9,3,1,14,0,1,9,2,1,8,6,1,5,5,3
2018-08-07T23:59:21Z,8,13,8,6,13,8,4,4,1,2,0,0,0,0,0,0,12,1,7,3,0,13,0,8,13,0,8,0,13,0,8,0,0,13,0,1,8,1,13,0,0,8,1,0,13,0,0,8,0,0,13,0,0,8,1,0,13,0,0,8,0,0,13,0,0,8,0,0,13,0,0,8,0,0,13,0,0,8,2,0,13,0,0,8,1,0,13,0,0,8,1,0,0,13,0,0,8,0,0,13,0,0,8,0,13,0,0,8,1,0,13,0,0,8,1,0,7,5,1,4,4,2
2018-08-08T23:59:20Z,10,16,11,8,16,10,7,6,1,3,0,0,0,0,0,0,12,4,7,5,0,16,0,10,15,0,10,0,16,0,10,0,1,15,0,2,9,2,16,0,0,10,2,0,16,0,0,10,0,0,16,0,0,10,2,0,16,0,0,10,0,0,16,0,0,10,0,0,16,0,0,10,0,0,16,0,0,10,3,0,16,0,0,10,1,0,16,0,0,10,1,0,0,16,0,0,10,0,0,16,0,0,10,0,16,0,0,10,1,0,16,0,0,10,1,0,10,5,1,6,4,3
2018-08-09T23:59:21Z,10,15,10,8,15,10,6,6,1,3,0,0,0,0,0,0,12,3,7,5,0,15,0,10,14,0,9,0,15,0,10,0,2,13,0,3,8,2,15,0,0,10,2,0,15,0,0,10,0,0,15,0,0,10,2,0,15,0,0,10,0,0,15,0,0,10,0,0,15,0,0,10,0,0,15,0,0,10,3,0,15,0,0,10,1,0,15,0,0,10,1,0,0,15,0,0,10,0,0,15,0,0,10,0,15,0,0,10,1,0,15,0,0,10,1,0,9,6,0,6,5,3
2018-08-10T23:59:21Z,10,15,10,8,15,10,6,6,1,3,0,0,0,0,0,0,12,3,7,5,0,15,0,10,14,0,9,0,15,0,10,0,2,13,0,3,8,2,15,0,0,10,2,0,15,0,0,10,0,0,15,0,0,10,2,0,15,0,0,10,0,0,15,0,0,10,0,0,15,0,0,10,0,0,15,0,0,10,3,0,15,0,0,10,1,0,15,0,0,10,1,0,0,15,0,0,10,0,0,15,0,0,10,0,15,0,0,10,1,0,15,0,0,10,1,0,9,5,1,6,4,3
2018-08-11T23:59:22Z,10,15,10,8,15,10,6,6,1,3,0,0,0,0,0,0,12,3,7,5,0,15,0,10,14,0,9,0,15,0,10,0,2,13,0,3,8,2,15,0,0,10,2,0,15,0,0,10,0,0,15,0,0,10,2,0,15,0,0,10,0,0,15,0,0,10,0,0,15,0,0,10,0,0,15,0,0,10,3,0,15,0,0,10,1,0,15,0,0,10,1,0,0,15,0,0,10,0,0,15,0,0,10,0,15,0,0,10,1,0,15,0,0,10,1,0,9,5,1,6,4,3
2018-08-12T23:59:22Z,11,16,11,9,16,11,7,7,1,3,0,0,0,0,0,0,12,4,7,6,0,16,0,11,15,0,10,0,16,0,11,0,3,13,0,4,8,2,16,0,0,11,2,0,16,0,0,11,0,0,16,0,0,11,2,0,16,0,0,11,0,0,16,0,0,11,0,0,16,0,0,11,0,0,16,0,0,11,3,0,16,0,0,11,1,0,16,0,0,11,1,0,0,16,0,0,11,0,0,16,0,0,11,0,16,0,0,11,1,0,16,0,0,11,1,0,10,5,1,7,4,3
2018-08-13T23:59:30Z,12,17,12,10,17,12,8,8,1,3,0,0,0,0,0,0,12,5,7,7,0,17,0,12,16,0,11,0,17,0,12,0,3,14,0,4,9,2,17,0,0,12,2,0,17,0,0,12,0,0,17,0,0,12,2,0,17,0,0,12,0,0,17,0,0,12,0,0,17,0,0,12,0,0,17,0,0,12,3,0,17,0,0,12,1,0,17,0,0,12,1,0,0,17,0,0,12,0,0,17,0,0,12,0,17,0,0,12,1,0,17,0,0,12,1,0,11,5,1,8,4,3
2018-08-14T23:59:21Z,11,16,11,9,16,11,7,7,1,3,0,0,0,0,0,0,12,4,7,6,0,16,0,11,16,0,11,0,16,0,11,0,3,13,0,4,8,2,16,0,0,11,2,0,16,0,0,11,0,0,16,0,0,11,2,0,16,0,0,11,0,0,16,0,0,11,0,0,16,0,0,11,0,0,16,0,0,11,3,0,16,0,0,11,1,0,16,0,0,11,1,0,0,16,0,0,11,0,0,16,0,0,11,0,16,0,0,11,1,0,16,0,0,11,1,0,10,6,0,7,5,3
2018-08-15T23:59:21Z,11,16,11,9,16,11,7,7,1,3,0,0,0,0,0,0,12,4,7,6,0,16,0,11,16,0,11,0,16,0,11,0,3,13,0,4,8,2,16,0,0,11,2,0,16,0,0,11,0,0,16,0,0,11,2,0,16,0,0,11,0,0,16,0,0,11,0,0,16,0,0,11,0,0,16,0,0,11,3,0,16,0,0,11,1,0,16,0,0,11,1,0,0,16,0,0,11,0,0,16,0,0,11,0,16,0,0,11,1,0,16,0,0,11,1,0,10,5,1,7,4,3
2018-08-16T23:59:22Z,12,16,12,10,16,12,8,8,1,3,0,0,0,0,0,0,12,4,8,6,0,16,0,12,16,0,12,1,16,0,12,0,3,13,0,4,9,2,16,0,0,12,2,0,16,0,0,12,0,0,16,0,0,12,2,0,16,0,0,12,0,0,16,0,0,12,0,0,16,0,0,12,0,0,16,0,0,12,3,0,16,0,0,12,1,0,16,0,0,12,1,0,0,16,0,0,12,0,0,16,0,0,12,0,16,0,0,12,1,0,16,0,0,12,1,0,9,6,1,7,5,3
2018-08-17T23:59:23Z,14,19,13,11,19,14,9,9,1,3,0,0,0,0,0,0,13,6,8,8,0,19,0,14,17,0,12,0,19,0,14,0,5,14,0,6,9,2,19,0,0,14,2,0,19,0,0,14,0,0,18,0,1,13,2,1,19,0,0,14,0,0,19,0,0,14,0,0,19,0,0,14,0,0,19,0,0,14,3,0,18,1,0,13,2,0,17,1,1,12,2,1,1,18,0,1,13,0,0,19,0,0,14,0,18,1,0,13,2,0,19,0,0,14,1,0,11,7,1,8,6,3
2018-08-18T23:59:22Z,12,17,12,10,17,12,8,8,1,3,0,0,0,0,0,0,13,4,8,6,0,17,0,12,17,0,12,0,17,0,12,0,3,14,0,4,9,2,17,0,0,12,2,0,17,0,0,12,0,0,17,0,0,12,2,0,17,0,0,12,0,0,17,0,0,12,0,0,17,0,0,12,0,0,17,0,0,12,3,0,17,0,0,12,1,0,17,0,0,12,1,0,0,17,0,0,12,0,0,17,0,0,12,0,17,0,0,12,1,0,17,0,0,12,1,0,10,6,1,7,5,3
2018-08-19T23:59:22Z,13,18,13,11,18,13,9,9,1,4,0,0,0,0,0,0,13,5,8,7,0,18,0,13,18,0,13,0,18,0,13,0,4,14,0,5,10,3,18,0,0,13,3,0,18,0,0,13,1,0,18,0,0,13,3,0,18,0,0,13,1,0,18,0,0,13,1,0,18,0,0,13,1,0,18,0,0,13,4,0,18,0,0,13,2,0,18,0,0,13,2,0,0,18,0,0,13,0,0,18,0,0,13,0,18,0,0,13,2,0,18,0,0,13,2,1,11,6,1,8,5,4
2018-08-20T23:59:22Z,14,19,14,12,19,14,10,10,1,4,0,0,0,0,0,0,13,6,9,8,0,19,0,14,19,0,14,0,19,0,14,0,4,14,1,5,11,4,18,1,0,13,4,0,19,0,0,14,2,0,18,1,0,13,4,0,19,0,0,14,2,0,19,0,0,14,2,0,19,0,0,14,2,0,19,0,0,14,5,0,19,0,0,14,3,0,19,0,0,14,3,0,0,19,0,0,14,0,0,19,0,0,14,0,19,0,0,14,3,0,19,0,0,14,3,0,11,7,1,8,6,5
2018-08-21T23:59:21Z,14,20,15,12,20,14,11,10,1,4,0,0,0,0,0,0,13,7,8,8,0,20,0,14,20,0,14,0,20,0,14,0,6,14,0,6,10,3,20,0,0,14,3,0,20,0,0,14,1,0,20,0,0,14,3,0,20,0,0,14,1,0,20,0,0,14,1,0,20,0,0,14,1,0,20,0,0,14,4,0,20,0,0,14,2,0,20,0,0,14,2,0,0,20,0,0,14,0,0,20,0,0,14,0,20,0,0,14,2,0,20,0,0,14,2,0,13,6,1,9,5,4
2018-08-22T23:59:30Z,17,23,18,15,23,17,13,13,1,4,0,0,0,0,0,0,13,10,8,11,0,23,0,17,21,0,15,0,23,0,17,0,7,15,1,7,12,4,21,1,1,17,5,1,22,0,1,17,1,1,21,0,2,17,4,2,23,0,0,17,1,0,23,0,0,17,1,0,22,0,1,17,1,1,23,0,0,17,6,0,23,0,0,17,2,0,23,0,0,17,2,0,0,23,0,1,17,0,0,23,0,0,17,0,22,0,1,16,3,1,22,0,1,17,2,1,15,8,0,11,7,4
2018-08-23T23:59:48Z,16,22,17,14,20,14,9,9,2,6,0,0,0,0,0,0,14,8,9,9,0,22,0,16,22,0,16,0,22,0,16,0,6,16,0,6,11,4,22,0,0,16,4,0,22,0,0,16,0,0,22,0,0,16,4,0,22,0,0,16,0,0,22,0,0,16,0,0,22,0,0,16,0,1,22,0,0,16,5,0,22,0,0,16,1,0,22,0,0,16,1,0,1,21,0,1,16,0,0,22,0,0,16,0,21,0,1,16,1,1,22,0,0,16,1,0,13,7,2,9,6,6
2018-08-24T23:59:22Z,15,21,16,13,21,15,12,11,2,5,0,0,0,0,0,0,14,7,9,9,0,21,0,15,21,0,15,0,21,0,15,0,6,15,0,7,10,3,21,0,0,15,4,0,21,0,0,15,1,0,21,0,0,15,4,0,21,0,0,15,1,0,21,0,0,15,1,0,21,0,0,15,1,0,21,0,0,15,5,0,21,0,0,15,2,0,21,0,0,15,2,0,0,21,0,0,15,0,0,21,0,0,15,0,20,1,0,14,3,0,21,0,0,15,2,0,13,6,2,9,5,6
2018-08-25T23:59:29Z,14,19,15,12,19,14,11,10,1,4,0,0,0,0,0,0,11,8,7,9,0,19,0,14,18,0,13,0,19,0,14,0,6,13,0,6,9,3,19,0,0,14,3,0,19,0,0,14,0,0,19,0,0,14,3,0,19,0,0,14,0,0,19,0,0,14,0,0,19,0,0,14,0,0,19,0,0,14,4,0,19,0,0,14,1,0,19,0,0,14,1,0,0,19,0,1,14,0,0,19,0,0,14,0,19,0,0,14,1,0,19,0,0,14,1,0,12,7,0,9,6,4
2018-08-26T23:59:22Z,15,20,16,13,20,15,11,11,2,5,0,0,0,0,0,0,12,8,8,9,0,20,0,15,19,0,14,0,20,0,15,0,6,14,0,6,10,3,20,0,0,15,3,0,19,0,1,15,0,1,19,1,0,15,4,0,19,0,1,15,0,1,19,0,1,15,0,1,20,0,0,15,0,0,20,0,0,15,5,0,20,0,0,15,1,0,20,0,0,15,1,0,0,20,0,2,15,0,0,20,0,0,15,0,18,2,0,13,3,0,19,0,1,15,1,1,11,7,2,8,6,5
2018-08-27T23:59:22Z,14,20,15,12,20,14,11,10,1,4,0,0,0,0,0,0,13,7,8,9,0,20,0,14,20,0,14,0,20,0,14,0,6,14,0,7,9,3,20,0,0,14,4,0,20,0,0,14,1,0,20,0,0,14,4,0,20,0,0,14,1,0,20,0,0,14,1,0,20,0,0,14,1,0,20,0,0,14,5,0,20,0,0,14,2,0,20,0,0,14,2,0,0,20,0,3,14,0,0,20,0,0,14,0,20,0,0,14,2,0,20,0,0,14,2,0,13,6,1,9,5,5
2018-08-28T23:59:22Z,14,20,15,12,20,14,11,10,1,4,0,0,0,0,0,0,13,7,8,8,0,20,0,14,20,0,14,0,20,0,14,0,6,14,0,6,9,3,20,0,0,14,3,0,20,0,0,14,0,0,20,0,0,14,3,0,20,0,0,14,0,0,20,0,0,14,0,0,20,0,0,14,0,0,20,0,0,14,4,0,20,0,0,14,1,0,20,0,0,14,1,0,0,20,0,3,14,0,0,20,0,0,14,0,20,0,0,14,1,0,20,0,0,14,1,0,13,7,0,9,6,4
2018-08-29T23:59:21Z,15,21,16,13,20,15,12,11,1,4,0,0,0,0,0,0,13,8,8,10,0,21,0,15,21,0,15,0,21,0,15,0,7,14,0,8,10,3,21,0,0,15,4,0,21,0,0,15,1,0,21,0,0,15,4,0,21,0,0,15,1,0,21,0,0,15,1,0,21,0,0,15,1,0,21,0,0,15,6,0,21,0,0,15,2,0,21,0,0,15,2,0,0,21,0,3,15,0,0,21,0,0,15,0,21,0,0,15,3,0,21,0,0,15,2,0,14,6,1,10,5,5
2018-08-30T23:59:22Z,14,18,14,12,18,14,10,10,2,3,0,0,0,0,0,0,11,7,7,9,0,18,0,14,14,0,10,0,18,0,14,0,3,12,3,4,8,5,16,0,2,12,2,3,16,0,2,13,0,3,17,0,1,13,2,2,17,0,1,14,0,2,17,0,1,14,0,2,17,0,1,14,0,2,18,0,0,14,4,2,15,0,3,13,1,3,17,0,1,14,1,2,1,15,2,3,11,3,2,15,1,2,12,2,15,2,1,12,3,2,17,0,1,14,1,2,9,8,1,7,8,3
2018-08-31T23:59:20Z,16,21,16,13,19,16,12,11,2,5,0,0,0,0,0,0,12,9,8,10,0,20,0,16,20,0,15,0,21,0,16,0,7,13,1,7,11,4,20,1,0,15,5,0,20,0,1,15,2,1,20,0,1,15,5,1,20,1,0,15,2,0,20,1,0,15,2,0,21,0,0,16,2,0,21,0,0,16,6,0,20,1,0,15,3,0,20,1,0,15,3,0,0,21,0,3,16,0,0,21,0,0,16,0,19,2,0,14,4,0,20,1,0,15,3,0,12,7,2,9,6,6
2018-09-01T23:59:22Z,15,21,16,13,20,15,12,11,1,4,0,0,0,0,0,0,13,8,8,10,0,21,0,15,21,0,15,0,21,0,15,0,7,14,0,8,10,3,21,0,0,15,4,0,21,0,0,15,1,0,21,0,0,15,4,0,21,0,0,15,1,0,21,0,0,15,1,0,21,0,0,15,1,0,21,0,0,15,6,0,21,0,0,15,2,0,21,0,0,15,2,0,0,21,0,3,15,0,0,21,0,0,15,0,21,0,0,15,3,0,21,0,0,15,2,0,14,6,1,10,5,5
2018-09-02T23:59:28Z,17,23,17,14,22,17,13,12,1,4,0,0,0,0,0,0,14,9,9,10,0,22,0,17,21,0,15,0,23,0,17,0,7,16,0,7,12,3,23,0,0,17,4,0,23,0,0,17,1,0,23,0,0,17,4,0,23,0,0,17,1,0,23,0,0,17,1,0,23,0,0,17,1,0,23,0,0,17,5,0,23,0,0,17,2,0,23,0,0,17,2,0,0,23,0,3,17,0,0,23,0,0,17,0,23,0,0,17,2,0,23,0,0,17,2,0,16,6,1,12,5,4
2018-09-03T23:59:22Z,16,22,16,13,21,16,15,12,1,4,0,0,0,0,0,0,14,8,9,9,0,22,0,16,22,0,16,0,22,0,16,0,7,15,0,7,11,3,22,0,0,16,4,0,22,0,0,16,1,0,22,0,0,16,4,0,22,0,0,16,1,0,22,0,0,16,1,0,22,0,0,16,1,0,22,0,0,16,5,0,22,0,0,16,2,0,22,0,0,16,2,0,0,22,0,3,16,0,0,22,0,0,16,0,22,0,0,16,2,0,22,0,0,16,2,0,15,6,1,11,5,4
2018-09-04T23:59:21Z,17,23,17,14,22,17,13,12,1,4,0,0,0,0,0,0,14,9,9,10,0,23,0,17,23,0,17,0,23,0,17,0,7,16,0,7,12,3,23,0,0,17,4,0,23,0,0,17,1,0,23,0,0,17,4,0,23,0,0,17,1,0,23,0,0,17,1,0,23,0,0,17,1,0,23,0,0,17,6,0,23,0,0,17,2,0,23,0,0,17,2,0,0,23,0,3,17,0,0,23,0,0,17,0,22,1,0,16,3,0,23,0,0,17,2,0,16,6,1,12,5,4
2018-09-05T23:59:20Z,19,26,20,16,25,19,16,14,2,5,0,0,0,0,0,0,15,11,10,11,0,26,0,19,26,0,19,0,26,0,19,0,9,17,0,9,13,3,26,0,0,19,5,0,26,0,0,19,1,0,26,0,0,19,4,0,26,0,0,19,1,0,26,0,0,19,1,0,26,0,0,19,1,0,26,0,0,19,6,0,26,0,0,19,2,0,26,0,0,19,2,0,0,26,0,3,19,0,0,26,0,0,19,0,25,1,0,18,4,0,26,0,0,19,2,0,18,7,1,13,6,5
2018-09-06T23:59:22Z,19,26,20,16,25,19,16,14,2,5,0,0,0,0,0,0,15,11,10,12,0,26,0,19,26,0,19,0,26,0,19,0,9,17,0,9,13,4,26,0,0,19,5,0,26,0,0,19,1,0,26,0,0,19,5,0,26,0,0,19,1,0,26,0,0,19,1,0,26,0,0,19,1,0,26,0,0,19,7,0,26,0,0,19,2,0,26,0,0,19,2,0,0,26,0,4,19,0,0,26,0,0,19,0,26,0,0,19,4,0,26,0,0,19,2,0,18,7,1,13,6,5
2018-09-07T23:59:21Z,20,29,23,17,28,20,19,15,2,5,0,0,0,0,0,0,15,14,10,13,0,29,0,20,29,0,20,0,29,0,20,0,12,17,0,10,13,4,29,0,0,20,5,0,29,0,0,20,1,0,29,0,0,20,5,0,29,0,0,20,1,0,29,0,0,20,1,0,29,0,0,20,1,0,29,0,0,20,7,0,29,0,0,20,2,0,29,0,0,20,2,0,0,29,0,4,20,0,0,29,0,0,20,0,28,1,0,20,4,0,29,0,0,20,2,0,21,7,1,14,6,5
2018-09-08T23:59:20Z,19,28,22,16,28,19,18,14,2,5,0,0,0,0,0,0,14,14,9,13,0,28,0,19,28,0,19,0,28,0,19,0,11,17,0,9,12,4,28,0,0,19,5,0,28,0,0,19,0,0,28,0,0,19,5,0,28,0,0,19,0,0,28,0,0,19,0,0,28,0,0,19,0,0,28,0,0,19,7,0,28,0,0,19,1,0,28,0,0,19,1,0,0,28,0,4,19,0,0,28,0,0,19,0,26,2,0,18,4,0,28,0,0,19,1,0,21,6,1,14,5,5
2018-09-09T23:59:21Z,18,27,21,15,27,18,17,13,2,5,0,0,0,0,0,0,14,13,9,11,0,27,0,18,27,0,18,0,27,0,18,0,11,16,0,9,11,3,27,0,0,18,3,0,27,0,0,18,0,0,27,0,0,18,3,0,27,0,0,18,0,0,27,0,0,18,0,0,27,0,0,18,0,0,27,0,0,18,5,0,27,0,0,18,1,0,27,0,0,18,1,0,0,27,0,3,18,0,0,27,0,0,18,0,26,1,0,17,3,0,27,0,0,18,1,0,20,5,2,13,4,5
2018-09-10T23:59:49Z,20,29,21,15,29,20,17,13,2,6,0,0,0,0,0,0,13,16,8,15,0,29,0,20,27,1,18,1,29,0,20,0,13,16,0,11,11,5,28,0,1,19,6,1,29,0,0,20,1,0,28,0,1,19,6,1,29,0,0,20,1,0,29,0,0,20,1,0,29,0,0,20,1,0,29,0,0,20,7,0,29,0,0,20,1,0,29,0,0,20,1,0,1,28,0,5,19,0,0,28,1,0,20,1,27,1,1,20,3,1,29,0,0,20,1,0,22,5,2,15,4,6
2018-09-11T23:59:20Z,17,25,19,13,25,17,16,11,1,4,0,0,0,0,0,0,11,14,7,11,0,25,0,17,25,0,17,0,25,0,17,0,12,13,0,9,9,3,25,0,0,17,3,0,25,0,0,17,0,0,25,0,0,17,3,0,25,0,0,17,0,0,25,0,0,17,0,0,25,0,0,17,0,0,25,0,0,17,4,0,25,0,0,17,0,0,25,0,0,17,0,0,0,25,0,3,17,0,0,25,0,0,17,0,25,0,0,17,1,0,25,0,0,17,0,0,19,6,0,13,5,3
2018-09-12T23:59:49Z,19,27,21,15,27,19,17,13,1,5,0,0,0,0,0,0,12,15,8,12,0,27,0,19,27,0,19,0,27,0,19,0,12,15,0,9,11,4,27,0,0,19,4,0,27,0,0,19,0,0,27,0,0,19,4,0,27,0,0,19,0,0,27,0,0,19,0,0,27,0,0,19,0,0,27,0,0,19,5,0,27,0,0,19,0,0,27,0,0,19,0,0,1,26,0,4,18,0,0,27,0,0,19,0,26,0,1,19,1,3,27,0,0,19,0,0,20,6,1,14,5,4
2018-09-13T23:59:49Z,20,28,22,16,28,20,19,14,2,6,0,0,0,0,0,0,13,15,9,13,0,28,0,20,28,0,20,0,28,0,20,0,12,16,0,9,12,5,28,0,0,20,5,0,28,0,0,20,0,0,28,0,0,20,5,0,28,0,0,20,0,0,28,0,0,20,0,0,28,0,0,20,0,0,28,0,0,20,6,0,28,0,0,20,0,0,28,0,0,20,0,0,1,27,0,5,19,0,0,28,0,0,20,0,27,0,1,20,2,5,28,0,0,20,0,0,20,6,2,14,5,5
2018-09-14T23:59:22Z,21,29,23,17,29,21,19,15,1,5,0,0,0,0,0,0,12,17,9,14,0,29,0,21,28,0,20,0,29,0,21,0,14,15,0,11,12,4,29,0,0,21,5,0,29,0,0,21,0,0,29,0,0,21,5,0,29,0,0,21,0,0,29,0,0,21,0,0,29,0,0,21,0,0,29,0,0,21,6,0,29,0,0,21,0,0,29,0,0,21,0,0,0,29,0,5,21,0,0,29,0,0,21,0,29,0,0,21,2,4,29,0,0,21,0,0,22,6,1,16,5,5
2018-09-15T23:59:21Z,22,31,24,18,31,22,20,16,2,6,0,0,0,0,0,0,16,15,11,14,0,31,0,22,30,0,21,0,31,0,22,0,14,17,0,12,13,5,30,1,0,21,6,0,31,0,0,22,0,0,31,0,0,22,6,0,31,0,0,22,0,0,31,0,0,22,0,0,30,0,1,21,0,1,31,0,0,22,8,0,31,0,0,22,0,0,31,0,0,22,0,0,1,30,0,6,21,0,1,30,0,1,21,0,31,0,0,22,4,5,31,0,0,22,0,0,23,6,2,16,5,7
2018-09-16T23:59:48Z,23,32,24,18,32,23,21,16,2,7,0,0,0,0,0,0,16,16,11,15,0,32,0,23,31,0,22,0,32,0,23,0,14,18,0,11,13,6,32,0,0,23,6,0,32,0,0,23,0,0,31,0,1,22,6,1,32,0,0,23,0,0,32,0,0,23,0,0,32,0,0,23,0,0,32,0,0,23,7,0,32,0,0,23,0,0,32,0,0,23,0,0,0,31,1,6,22,1,0,31,1,0,23,1,30,1,1,21,2,6,32,0,0,23,0,0,24,6,2,17,5,6
2018-09-17T23:59:17Z,25,34,26,20,33,25,23,18,3,7,0,0,0,0,0,0,16,18,12,17,0,34,0,25,33,0,24,0,34,0,25,0,16,17,1,14,16,6,34,0,0,25,9,0,34,0,0,25,2,0,33,1,0,24,9,0,34,0,0,25,2,0,34,0,0,25,2,0,34,0,0,25,2,0,34,0,0,25,11,0,34,0,0,25,2,0,34,0,0,25,2,0,1,33,0,7,24,0,0,34,0,0,25,0,32,2,0,23,7,5,34,0,0,25,2,0,25,8,1,18,7,9
2018-09-18T23:59:20Z,22,30,24,18,29,22,20,16,3,7,0,0,0,0,0,0,14,16,10,14,0,30,0,22,29,0,21,0,30,0,22,0,14,16,0,11,13,5,30,0,0,22,7,0,30,0,0,22,1,0,29,1,0,21,7,0,30,0,0,22,1,0,30,0,0,22,1,0,30,0,0,22,1,0,30,0,0,22,8,0,30,0,0,22,1,0,30,0,0,22,1,0,0,30,0,6,22,0,0,30,0,0,22,0,30,0,0,22,4,5,30,0,0,22,1,0,22,6,2,16,5,6
2018-09-19T23:59:49Z,22,30,24,18,29,22,20,16,1,6,0,0,0,0,0,0,13,17,9,14,0,30,0,22,28,2,20,2,30,0,22,0,14,15,1,11,12,6,29,1,0,21,7,0,29,1,0,21,2,0,29,1,0,21,7,0,29,1,0,21,2,0,29,1,0,21,2,0,30,0,0,22,1,0,30,0,0,22,7,0,30,0,0,22,1,0,29,1,0,21,2,0,1,28,1,5,20,1,0,29,1,0,21,1,28,1,1,20,3,5,29,0,1,21,1,1,22,7,1,16,6,5
2018-09-20T23:59:20Z,22,31,24,18,30,22,20,16,2,6,0,0,0,0,0,0,15,16,10,14,0,31,0,22,30,1,21,1,31,0,22,0,14,17,0,12,13,4,31,0,0,22,6,0,31,0,0,22,1,0,30,1,0,21,6,0,31,0,0,22,1,0,31,0,0,22,1,0,31,0,0,22,1,0,31,0,0,22,8,0,31,0,0,22,1,0,31,0,0,22,1,0,0,31,0,5,22,0,0,31,0,0,22,0,31,0,0,22,4,4,31,0,0,22,1,0,24,6,1,17,5,6
2018-09-21T23:59:22Z,22,31,24,18,30,22,21,16,2,6,0,0,0,0,0,0,14,17,9,14,0,30,0,21,31,0,22,0,31,0,22,0,14,17,0,11,13,4,31,0,0,22,5,0,31,0,0,22,1,0,31,0,0,22,5,1,31,0,0,22,1,0,31,0,0,22,1,0,31,0,0,22,1,0,31,0,0,22,7,0,31,0,0,22,1,1,31,0,0,22,1,0,0,31,0,4,22,0,0,31,0,0,22,0,30,1,0,21,3,4,31,0,0,22,1,0,24,6,1,18,5,4
2018-09-22T23:59:20Z,25,34,27,21,33,25,24,19,3,7,0,0,0,0,0,0,17,17,13,15,0,34,0,25,32,0,23,0,34,0,25,0,15,18,1,12,16,6,33,1,0,24,8,0,34,0,0,25,1,0,33,1,0,24,8,0,34,0,0,25,1,0,34,0,0,25,1,0,34,0,0,25,1,0,34,0,0,25,9,0,34,0,0,25,1,0,34,0,0,25,1,0,0,34,0,7,25,0,0,34,0,0,25,0,31,3,0,22,6,4,34,0,0,25,1,0,24,8,2,17,7,8
2018-09-23T23:59:46Z,24,33,26,20,32,24,23,18,2,7,0,0,0,0,0,0,17,16,12,15,0,33,0,24,33,0,24,0,33,0,24,0,14,19,0,11,15,6,32,1,0,23,8,0,33,0,0,24,1,0,33,0,0,24,8,0,33,0,0,24,1,0,33,0,0,24,1,0,33,0,0,24,1,0,33,0,0,24,9,0,33,0,0,24,1,0,33,0,0,24,1,0,1,32,0,7,23,0,0,33,0,0,24,0,32,1,0,23,4,4,33,0,0,24,1,0,24,7,2,17,6,7
2018-09-24T23:59:21Z,21,30,23,17,30,21,20,15,2,6,0,0,0,0,0,0,15,15,10,12,0,30,0,21,30,0,21,0,30,0,21,0,13,17,0,10,12,4,30,0,0,21,4,0,30,0,0,21,0,0,30,0,0,21,4,0,30,0,0,21,0,0,30,0,0,21,0,0,30,0,0,21,0,0,30,0,0,21,5,0,30,0,0,21,0,0,30,0,0,21,0,0,0,30,0,4,21,0,0,30,0,0,21,0,30,0,0,21,1,1,30,0,0,21,0,0,23,5,2,16,4,5
2018-09-25T23:59:22Z,21,30,23,17,30,21,20,15,2,6,0,0,0,0,0,0,15,15,10,13,0,30,0,21,30,0,21,0,30,0,21,0,13,17,0,10,12,5,30,0,0,21,5,0,30,0,0,21,0,0,30,0,0,21,5,0,30,0,0,21,0,0,30,0,0,21,0,0,30,0,0,21,0,0,30,0,0,21,6,0,30,0,0,21,0,0,30,0,0,21,0,0,0,30,0,5,21,0,0,30,0,0,21,0,29,1,0,21,2,0,30,0,0,21,0,0,23,5,2,16,4,5
2018-09-26T23:59:22Z,24,33,25,19,33,24,20,16,1,5,0,0,0,0,0,0,14,19,10,16,0,33,0,24,29,0,20,0,33,0,24,0,15,18,0,12,14,4,33,0,0,24,5,0,33,0,0,24,0,0,33,0,0,24,5,0,33,0,0,24,0,0,33,0,0,24,0,0,33,0,0,24,0,0,33,0,0,24,6,0,33,0,0,24,0,0,33,0,0,24,0,0,0,33,0,5,24,0,0,33,0,0,24,0,32,1,0,23,3,0,33,0,0,24,0,0,26,7,0,19,6,5
2018-09-27T23:59:30Z,24,33,26,20,33,24,23,18,2,6,0,0,0,0,0,0,16,17,11,16,0,33,0,24,31,1,22,1,33,0,24,0,13,20,0,11,15,5,33,0,0,24,5,0,33,0,0,24,0,0,33,0,0,24,4,1,33,0,0,24,0,0,33,0,0,24,0,0,33,0,0,24,0,0,33,0,0,24,7,0,33,0,0,24,0,0,33,0,0,24,0,0,0,33,0,5,24,0,0,33,0,0,24,0,33,0,0,24,3,0,33,0,0,24,0,0,25,6,2,18,5,6